QJE662 YBTH-YSSY

Flight info

Callsign QJE662
Flight time 0h 24m
Altitude 13000
Route KADOM DCT BOOGI
Aircraft RJ85/M-SDFGIRWY/LB1

Departure

Time 2026-05-07 03:15
Airport Bathurst Airport (YBTH)

Arrival

Time 2026-05-07 03:39
Airport Sydney Kingsford Smith International Airport (YSSY)
Time Latitude Longitude Altitude Speed Heading
2026-05-07 03:04 -33.41356 149.65460 2435 ft 0 kts 186°
2026-05-07 03:10 -33.41363 149.65455 2430 ft 2 kts 247°
2026-05-07 03:10 -33.41358 149.65428 2434 ft 5 kts 288°
2026-05-07 03:11 -33.41349 149.65370 2434 ft 9 kts 278°
2026-05-07 03:11 -33.41339 149.65287 2434 ft 13 kts 279°
2026-05-07 03:11 -33.41304 149.65169 2429 ft 17 kts 331°
2026-05-07 03:11 -33.41142 149.65152 2421 ft 31 kts 355°
2026-05-07 03:12 -33.40927 149.65135 2416 ft 32 kts 356°
2026-05-07 03:12 -33.40725 149.65119 2414 ft 29 kts 356°
2026-05-07 03:12 -33.40512 149.65102 2415 ft 34 kts 356°
2026-05-07 03:12 -33.40278 149.65081 2410 ft 33 kts 359°
2026-05-07 03:13 -33.40100 149.65059 2404 ft 8 kts 339°
2026-05-07 03:13 -33.40087 149.65067 2404 ft 3 kts 120°
2026-05-07 03:13 -33.40099 149.65071 2405 ft 0 kts 175°
2026-05-07 03:14 -33.40171 149.65077 2409 ft 37 kts 176°
2026-05-07 03:14 -33.40644 149.65113 2416 ft 97 kts 176°
2026-05-07 03:14 -33.42290 149.65251 2943 ft 130 kts 180°
2026-05-07 03:15 -33.43118 149.65778 3552 ft 151 kts 139°
2026-05-07 03:15 -33.43649 149.66991 3863 ft 180 kts 121°
2026-05-07 03:15 -33.44163 149.68423 4327 ft 194 kts 121°
2026-05-07 03:15 -33.44728 149.69916 4940 ft 198 kts 122°
2026-05-07 03:16 -33.45297 149.71287 5863 ft 175 kts 127°
2026-05-07 03:16 -33.45882 149.72604 6319 ft 189 kts 130°
2026-05-07 03:16 -33.46578 149.74061 6490 ft 215 kts 130°
2026-05-07 03:16 -33.47370 149.75684 6620 ft 237 kts 129°
2026-05-07 03:17 -33.48204 149.77419 7183 ft 239 kts 128°
2026-05-07 03:17 -33.49008 149.79165 8092 ft 241 kts 127°
2026-05-07 03:17 -33.49803 149.80922 8985 ft 246 kts 127°
2026-05-07 03:17 -33.50609 149.82753 9853 ft 250 kts 126°
2026-05-07 03:18 -33.51436 149.84604 10599 ft 255 kts 127°
2026-05-07 03:18 -33.52270 149.86507 11317 ft 261 kts 126°
2026-05-07 03:18 -33.53111 149.88472 11986 ft 267 kts 127°
2026-05-07 03:18 -33.54004 149.90469 12635 ft 276 kts 128°
2026-05-07 03:19 -33.54935 149.92540 13011 ft 294 kts 127°
2026-05-07 03:19 -33.55966 149.94786 13149 ft 322 kts 127°
2026-05-07 03:19 -33.57065 149.97210 13192 ft 349 kts 126°
2026-05-07 03:19 -33.58238 149.99863 13240 ft 370 kts 124°
2026-05-07 03:20 -33.59445 150.02624 13191 ft 372 kts 124°
2026-05-07 03:20 -33.60646 150.05359 13171 ft 371 kts 124°
2026-05-07 03:20 -33.61856 150.08084 13113 ft 369 kts 124°
2026-05-07 03:20 -33.63042 150.10823 13116 ft 370 kts 124°
2026-05-07 03:21 -33.64234 150.13560 13117 ft 370 kts 125°
2026-05-07 03:21 -33.65454 150.16282 13121 ft 370 kts 125°
2026-05-07 03:21 -33.66679 150.19005 13084 ft 371 kts 124°
2026-05-07 03:21 -33.67885 150.21698 13082 ft 372 kts 124°
2026-05-07 03:22 -33.69088 150.24442 13078 ft 371 kts 123°
2026-05-07 03:22 -33.70274 150.27199 13085 ft 371 kts 123°
2026-05-07 03:22 -33.71484 150.29937 13052 ft 372 kts 125°
2026-05-07 03:22 -33.72726 150.32656 13048 ft 371 kts 124°
2026-05-07 03:23 -33.73910 150.35404 13083 ft 368 kts 123°
2026-05-07 03:23 -33.75095 150.38157 13082 ft 371 kts 123°
2026-05-07 03:23 -33.76269 150.40879 13084 ft 373 kts 123°
2026-05-07 03:23 -33.77471 150.43634 13085 ft 372 kts 124°
2026-05-07 03:24 -33.78689 150.46357 13051 ft 370 kts 124°
2026-05-07 03:24 -33.79934 150.49108 13121 ft 377 kts 123°
2026-05-07 03:24 -33.81102 150.51939 13132 ft 377 kts 122°
2026-05-07 03:24 -33.82315 150.54711 13081 ft 375 kts 123°
2026-05-07 03:25 -33.83504 150.57502 13074 ft 374 kts 119°
2026-05-07 03:25 -33.84130 150.60581 13075 ft 388 kts 97°
2026-05-07 03:25 -33.84182 150.63824 13059 ft 382 kts 94°
2026-05-07 03:25 -33.84205 150.66963 13047 ft 376 kts 94°
2026-05-07 03:26 -33.84201 150.70061 12676 ft 373 kts 93°
2026-05-07 03:26 -33.84170 150.73123 12367 ft 362 kts 93°
2026-05-07 03:26 -33.84128 150.76135 11884 ft 358 kts 92°
2026-05-07 03:26 -33.84093 150.79113 11409 ft 355 kts 92°
2026-05-07 03:27 -33.84053 150.82070 10955 ft 352 kts 92°
2026-05-07 03:27 -33.84007 150.84997 10501 ft 349 kts 92°
2026-05-07 03:27 -33.83955 150.87900 10051 ft 343 kts 92°
2026-05-07 03:27 -33.83891 150.90631 9577 ft 316 kts 92°
2026-05-07 03:28 -33.83813 150.93208 9057 ft 312 kts 92°
2026-05-07 03:28 -33.83739 150.95803 8795 ft 307 kts 92°
2026-05-07 03:28 -33.83528 150.98357 8450 ft 307 kts 84°
2026-05-07 03:28 -33.83178 151.00878 8121 ft 305 kts 83°
2026-05-07 03:29 -33.82815 151.03377 7816 ft 302 kts 83°
2026-05-07 03:29 -33.82443 151.05870 7417 ft 305 kts 83°
2026-05-07 03:29 -33.82065 151.08377 7066 ft 304 kts 83°
2026-05-07 03:29 -33.81683 151.10872 6779 ft 303 kts 83°
2026-05-07 03:30 -33.81311 151.13324 6462 ft 302 kts 83°
2026-05-07 03:30 -33.80932 151.15800 6132 ft 300 kts 83°
2026-05-07 03:30 -33.80558 151.18241 5646 ft 294 kts 82°
2026-05-07 03:30 -33.80203 151.20641 5164 ft 289 kts 82°
2026-05-07 03:31 -33.79871 151.23003 4754 ft 285 kts 82°
2026-05-07 03:31 -33.79553 151.25348 4445 ft 285 kts 82°
2026-05-07 03:31 -33.79249 151.27694 4141 ft 284 kts 83°
2026-05-07 03:31 -33.78946 151.30036 3812 ft 284 kts 83°
2026-05-07 03:32 -33.78833 151.32381 3474 ft 279 kts 103°
2026-05-07 03:32 -33.79590 151.34427 3174 ft 272 kts 139°
2026-05-07 03:32 -33.81038 151.35750 3047 ft 257 kts 159°
2026-05-07 03:32 -33.82585 151.36772 3002 ft 248 kts 159°
2026-05-07 03:33 -33.84129 151.37303 2984 ft 216 kts 192°
2026-05-07 03:33 -33.85532 151.36986 2981 ft 201 kts 200°
2026-05-07 03:33 -33.86853 151.36640 2999 ft 185 kts 201°
2026-05-07 03:33 -33.88033 151.36329 3026 ft 165 kts 200°
2026-05-07 03:34 -33.89147 151.36030 3030 ft 164 kts 201°
2026-05-07 03:34 -33.90123 151.35497 3010 ft 150 kts 235°
2026-05-07 03:34 -33.90426 151.34371 2719 ft 145 kts 257°
2026-05-07 03:34 -33.90627 151.33216 2489 ft 138 kts 256°
2026-05-07 03:35 -33.90816 151.32088 2286 ft 137 kts 257°
2026-05-07 03:35 -33.90997 151.30955 2101 ft 139 kts 257°
2026-05-07 03:35 -33.91213 151.29819 1913 ft 139 kts 255°
2026-05-07 03:35 -33.91457 151.28706 1721 ft 137 kts 254°
2026-05-07 03:36 -33.91708 151.27603 1571 ft 137 kts 253°
2026-05-07 03:36 -33.91971 151.26501 1372 ft 134 kts 253°
2026-05-07 03:36 -33.92214 151.25498 1201 ft 117 kts 253°
2026-05-07 03:36 -33.92408 151.24603 1058 ft 105 kts 251°
2026-05-07 03:37 -33.92579 151.23816 936 ft 94 kts 250°
2026-05-07 03:37 -33.92782 151.23035 736 ft 101 kts 251°
2026-05-07 03:37 -33.92988 151.22219 623 ft 102 kts 253°
2026-05-07 03:37 -33.93176 151.21405 491 ft 101 kts 253°
2026-05-07 03:38 -33.93369 151.20577 377 ft 101 kts 253°
2026-05-07 03:38 -33.93563 151.19759 187 ft 111 kts 253°
2026-05-07 03:38 -33.93775 151.18888 93 ft 104 kts 253°
2026-05-07 03:38 -33.93968 151.18086 30 ft 89 kts 254°
2026-05-07 03:39 -33.94075 151.17640 28 ft 21 kts 254°
2026-05-07 03:39 -33.94054 151.17624 27 ft 5 kts 34°
2026-05-07 03:39 -33.94001 151.17636 28 ft 8 kts 351°
2026-05-07 03:39 -33.93956 151.17624 28 ft 6 kts 347°
2026-05-07 03:40 -33.93899 151.17609 29 ft 15 kts 347°
2026-05-07 03:40 -33.93762 151.17574 29 ft 21 kts 348°
2026-05-07 03:40 -33.93619 151.17537 28 ft 22 kts 348°
2026-05-07 03:40 -33.93462 151.17501 29 ft 22 kts 359°
2026-05-07 03:41 -33.93316 151.17486 29 ft 21 kts 348°
2026-05-07 03:41 -33.93174 151.17450 30 ft 20 kts 347°
2026-05-07 03:41 -33.93043 151.17414 30 ft 18 kts 348°
2026-05-07 03:41 -33.92923 151.17405 30 ft 17 kts 36°
2026-05-07 03:42 -33.92967 151.17526 30 ft 20 kts 155°
2026-05-07 03:42 -33.93021 151.17678 30 ft 21 kts 110°
2026-05-07 03:42 -33.93069 151.17849 30 ft 22 kts 99°
2026-05-07 03:42 -33.93098 151.18047 30 ft 22 kts 100°
2026-05-07 03:43 -33.93088 151.18159 30 ft 7 kts 61°
2026-05-07 03:43 -33.93080 151.18176 30 ft 2 kts 60°
2026-05-07 03:43 -33.93088 151.18190 30 ft 5 kts 135°
2026-05-07 03:43 -33.93115 151.18223 30 ft 3 kts 135°
2026-05-07 03:44 -33.93120 151.18230 30 ft 0 kts 135°